TimeCST,TemperatureF,Dew PointF,Humidity,Sea Level PressureIn,VisibilityMPH,Wind Direction,Wind SpeedMPH,Gust SpeedMPH,PrecipitationIn,Events,Conditions,WindDirDegrees,DateUTC
12:53 AM,26.1,19.9,78,30.25,10.0,Calm,Calm,-,N/A,,Clear,0,2011-11-30 06:53:00
1:53 AM,24.1,19.9,84,30.24,10.0,Calm,Calm,-,N/A,,Clear,0,2011-11-30 07:53:00
2:53 AM,24.1,19.9,84,30.24,10.0,Calm,Calm,-,N/A,,Clear,0,2011-11-30 08:53:00
3:53 AM,24.1,19.0,81,30.22,10.0,Calm,Calm,-,N/A,,Clear,0,2011-11-30 09:53:00
4:53 AM,21.9,19.0,89,30.20,10.0,Calm,Calm,-,N/A,,Clear,0,2011-11-30 10:53:00
5:53 AM,24.1,21.0,88,30.19,10.0,Calm,Calm,-,N/A,,Clear,0,2011-11-30 11:53:00
6:53 AM,25.0,17.1,72,30.20,10.0,Calm,Calm,-,N/A,,Clear,0,2011-11-30 12:53:00
7:53 AM,24.1,17.1,75,30.18,10.0,SSE,5.8,-,N/A,,Clear,160,2011-11-30 13:53:00
8:53 AM,32.0,19.0,59,30.17,10.0,South,4.6,-,N/A,,Clear,170,2011-11-30 14:53:00
9:53 AM,39.0,19.0,45,30.17,10.0,South,5.8,-,N/A,,Clear,190,2011-11-30 15:53:00
10:53 AM,44.1,17.1,34,30.15,10.0,SSW,8.1,-,N/A,,Clear,200,2011-11-30 16:53:00
11:53 AM,46.9,18.0,32,30.11,10.0,South,10.4,-,N/A,,Clear,190,2011-11-30 17:53:00
12:53 PM,50.0,17.1,27,30.08,10.0,South,10.4,20.7,N/A,,Clear,190,2011-11-30 18:53:00
1:53 PM,53.1,17.1,24,30.03,10.0,South,16.1,21.9,N/A,,Clear,190,2011-11-30 19:53:00
2:53 PM,53.1,17.1,24,30.01,10.0,South,17.3,23.0,N/A,,Clear,170,2011-11-30 20:53:00
3:53 PM,52.0,18.0,26,30.00,10.0,South,13.8,-,N/A,,Clear,170,2011-11-30 21:53:00
4:53 PM,48.2,19.4,32,29.98,10.0,SSE,11.5,-,N/A,,Clear,150,2011-11-30 22:53:00
5:53 PM,46.4,21.2,37,29.99,10.0,SSE,9.2,-,N/A,,Clear,150,2011-11-30 23:53:00
6:53 PM,42.1,23.0,47,30.01,10.0,SE,9.2,-,N/A,,Clear,140,2011-12-01 00:53:00
7:53 PM,42.1,23.0,47,30.03,10.0,SSE,10.4,-,N/A,,Clear,150,2011-12-01 01:53:00
8:53 PM,39.2,23.0,52,30.01,10.0,SE,5.8,-,N/A,,Clear,130,2011-12-01 02:53:00
9:53 PM,37.0,21.9,54,30.04,10.0,ESE,3.5,-,N/A,,Clear,120,2011-12-01 03:53:00
10:53 PM,36.0,23.0,59,30.05,10.0,ESE,4.6,-,N/A,,Clear,120,2011-12-01 04:53:00
11:53 PM,34.0,23.0,64,30.05,10.0,ESE,5.8,-,N/A,,Clear,110,2011-12-01 05:53:00